Regional Weather Roundup
Issued by NWS San Angelo, TX

Home | Current Version | Previous Version | Text Only | Print | Product List | Glossary On
Versions: 1 2 3 4 5 6 7 8 9 10 11 12 13 14 15 16 17 18 19 20 21 22 23 24 25 26 27 28 29 30 31 32 33 34 35 36 37 38 39 40 41 42 43 44 45 46 47 48 49 50
000
ASUS44 KSJT 240810
RWRSJT
WEST CENTRAL TEXAS REGIONAL WEATHER ROUNDUP
NATIONAL WEATHER SERVICE SAN ANGELO TX
200 AM CST FRI NOV 24 2017

NOTE: "FAIR" INDICATES FEW OR NO CLOUDS BELOW 12,000 FEET WITH NO
SIGNIFICANT WEATHER AND/OR OBSTRUCTIONS TO VISIBILITY.

TXZ049-054-064>066-071>073-076>078-098-099-113-114-127-128-139-140-
154-155-168>170-240900
...LOCATIONS ACROSS WEST CENTRAL TEXAS...

CITY           SKY/WX    TMP DP  RH WIND       PRES   REMARKS
SAN ANGELO     CLEAR     43  30  60 S5        30.02F
ABILENE        CLEAR     51  34  52 S8        29.99F
DYESS AFB      CLEAR     46  35  65 S7        29.98F
JUNCTION       CLEAR     38  29  70 CALM      30.05F
SWEETWATER     CLEAR     55  30  38 SW12      30.02F
BROWNWOOD      CLOUDY    37  32  81 CALM      30.02F
COLEMAN        SUNNY     49  32  51 S3        30.01F
SONORA         CLOUDY    36  27  69 CALM      30.10S
OZONA          FAIR      36  27  69 CALM      30.08F
BRADY          NOT AVBL
$$

TEXAS PANHANDLE/OKLAHOMA PANHANDLE

CITY           SKY/WX    TMP DP  RH WIND       PRES   REMARKS
AMARILLO       CLOUDY    52  31  44 SW10      29.95F
BORGER         CLOUDY    53  33  46 SW6       29.92F
CANADIAN       CLOUDY    42  37  80 CALM      29.90F
DALHART        CLOUDY    40  31  70 SW8       29.93F WCI  34
DUMAS          CLOUDY    47  31  53 SW13      29.92F
GUYMON         NOT AVBL
HEREFORD       CLOUDY    42  32  67 MISG      29.98F
PAMPA          CLOUDY    54  33  45 SW13      29.93F
PERRYTON       CLEAR     53  37  56 SW9       29.86F
$$

SOUTHERN PANHANDLE/SOUTH PLAINS/ROLLING PLAINS

CITY           SKY/WX    TMP DP  RH WIND       PRES   REMARKS
LUBBOCK        CLOUDY    47  31  53 W8        29.99F
SNYDER         CLEAR     47  32  55 S7        30.00F
CHILDRESS      CLOUDY    52  34  50 S3        29.93F
SEMINOLE       CLOUDY    46  32  57 W8        30.03F
$$

PERMIAN BASIN

CITY           SKY/WX    TMP DP  RH WIND       PRES   REMARKS
MIDLAND        CLEAR     47  30  51 SW6       30.03F
ODESSA         CLOUDY    48  30  49 W6        30.04F
WINK           CLOUDY    39  30  70 N7        30.03S WCI  34
$$

FAR WEST/SOUTHWEST MOUNTAINS/TRANS PECOS

CITY           SKY/WX    TMP DP  RH WIND       PRES   REMARKS
ALPINE         CLOUDY    47  26  44 SW9       30.16F
DRYDEN           N/A     45  32  60 CALM      30.03F
EL PASO        PTCLDY    49  27  42 CALM      30.09F
FORT STOCKTON  CLEAR     54  29  38 SW13      30.04F
GUADALUPE PASS CLEAR     52  25  35 SW15      30.14F
MARFA          CLOUDY    35  23  61 N6        30.15F WCI  30
PECOS          SUNNY     43  29  59 SW5       30.04S
$$

DALLAS/FORT WORTH METROPLEX

CITY           SKY/WX    TMP DP  RH WIND       PRES   REMARKS
DFW AIRPORT    PTCLDY    49  32  52 S7        29.98F
FTW MEACHAM    CLEAR     52  33  48 S7        29.99F
DAL-EXECUTIVE  CLEAR     54  31  41 S7        29.99F
GRAND PRAIRIE  CLEAR     50  30  46 S6        30.01F
ADDISON        CLEAR     48  31  52 S6        30.01F
MESQUITE       SUNNY     41  30  65 SE5       30.02S WCI  38
LANCASTER      SUNNY     42  30  62 CALM      30.02F
$$

NORTH CENTRAL TEXAS

CITY           SKY/WX    TMP DP  RH WIND       PRES   REMARKS
SHRMAN/DENISON SUNNY     49  31  49 S9        29.99F
GAINESVILLE    CLEAR     44  31  60 CALM      29.99F
BRIDGEPORT     SUNNY     40  33  76 CALM      29.98F
DENTON         PTCLDY    45  33  63 SE5       29.98F
WAXAHACHIE     SUNNY     47  32  56 CALM      30.02F
GRANBURY       SUNNY     44  33  67 CALM      30.01F
$$

WESTERN NORTH TEXAS

CITY           SKY/WX    TMP DP  RH WIND       PRES   REMARKS
WICHITA FALLS  CLOUDY    48  34  58 SW10      29.93F
VERNON         CLOUDY    48  32  53 S7        29.93F
BRECKENRIDGE   SUNNY     53  32  43 S7        29.96F
COMANCHE       CLEAR     52  32  47 S3        30.00F
$$

CENTRAL AND SOUTH CENTRAL TEXAS

CITY           SKY/WX    TMP DP  RH WIND       PRES   REMARKS
AUSTIN/BERGSTM CLEAR     38  35  89 CALM      30.04F
WACO           CLEAR     48  36  63 S9        30.02F
HILLSBORO      SUNNY     47  32  55 SE3       30.01F
TEMPLE         CLEAR     44  32  62 S8        30.03F WCI  39
KILLEEN-GRAY   CLEAR     49  30  48 S9        30.00F
FORT HOOD      CLEAR     49  31  50 S3        29.98F
GEORGETOWN     CLEAR     45  33  63 CALM      30.05F
LAGO VISTA     FAIR      53  30  40 S5        30.04S
SAN MARCOS     CLEAR     39  31  72 CALM      30.05F
NEW BRAUNFELS  CLEAR     42  32  67 W3        30.03F
RANDOLPH AFB   CLEAR     42  34  74 NW5       30.04F WCI  39
SAN ANTONIO    CLEAR     45  33  63 NW3       30.05F
STINSON        CLEAR     44  37  76 CALM      30.05F
PLEASANTON     NOT AVBL
LA GRANGE      CLEAR     43  37  82 CALM      30.03F
GIDDINGS       SUNNY     41  37  84 CALM      30.05F
$$

EAST TEXAS

CITY           SKY/WX    TMP DP  RH WIND       PRES   REMARKS
PARIS          CLEAR     43  31  62 S3        30.01F
CLARKSVILLE    NOT AVBL
TYLER          CLEAR     41  36  82 S5        30.02F WCI  38
LONGVIEW       CLEAR     40  37  89 S5        30.03F WCI  37
PALESTINE      SUNNY     39  37  93 SE3       30.05F
NACOGDOCHES    CLEAR     35  34  96 CALM      30.05
$$

TEXAS HILL COUNTRY AND EDWARDS PLATEAU

CITY           SKY/WX    TMP DP  RH WIND       PRES   REMARKS
LLANO          SUNNY     39  34  81 CALM      30.07S
HORSESHOE BAY  FAIR      40  33  75 CALM      30.03F
KERRVILLE      CLEAR     38  35  87 CALM      30.05F
FREDERICKSBRG  CLEAR     38  31  77 CALM      30.04F
ROCKSPRINGS    NOT AVBL
HONDO          CLEAR     40  27  59 N7        30.05F WCI  35
UVALDE         SUNNY     39  34  80 CALM      30.07S
DEL RIO        CLEAR     48  36  63 NE7       30.04F
$$

SOUTHEAST TEXAS

CITY           SKY/WX    TMP DP  RH WIND       PRES   REMARKS
COLLEGE STN    CLEAR     45  35  68 CALM      30.05F
CALDWELL       SUNNY     44  35  69 CALM      30.05S
CROCKETT         N/A     36  34  93 CALM      30.08F
BRENHAM        CLEAR     42  39  90 CALM      30.05F
HUNTSVILLE     CLEAR     43  36  76 S3        30.04F
CONROE         CLEAR     37  36  96 CALM      30.05F
HOUSTON BUSH   CLEAR     45  41  86 CALM      30.05F
HOUSTON HOBBY  PTCLDY    45  41  86 CALM      30.05F
PERLAND        CLEAR     45  41  86 CALM      30.07F
WHARTON        SUNNY     42  38  83 CALM      30.06S
$$

THE UPPER TEXAS COAST

CITY           SKY/WX    TMP DP  RH WIND       PRES   REMARKS
ORANGE         SUNNY     37  37 100 CALM      30.08S
PORT ARTHUR    CLEAR     41  38  89 N3        30.06S
GALVESTON      CLEAR     56  46  69 CALM      30.05F
ANGLETON       CLEAR     42  39  89 CALM      30.05F
BAY CITY       SUNNY     42  41  97 CALM      30.04F
$$

TEXAS COASTAL BEND, RIO GRANDE PLAINS DEEP SOUTH TEXAS

CITY           SKY/WX    TMP DP  RH WIND       PRES   REMARKS
VICTORIA       CLEAR     42  38  85 W5        30.06F WCI  39
BEEVILLE       FAIR      47  41  79 CALM      30.06S
ROCKPORT       CLEAR     46  46 100 CALM      30.05F
PORT ARANSAS   NOT AVBL
PORT LAVACA    SUNNY     45  40  84 CALM      30.05F
CORPUS CHRISTI PTCLDY    43  37  79 W6        30.05F WCI  39
KINGSVILLE NAS CLEAR     45  41  86 W6        30.06F
COTULLA        CLEAR     48  32  53 SE6       30.06F
LAREDO         CLEAR     51  36  56 SE7       30.07S
BROWNSVILLE    PTCLDY    50  46  86 CALM      30.05F
PORT ISABEL    CLEAR     51  48  89 CALM      30.04F
HEBBRONVILLE   SUNNY     46  37  69 CALM      30.07F
MCALLEN        CLEAR     51  46  83 CALM      30.06F
WESLACO        CLEAR     49  43  79 CALM      30.05F
FALFURRIAS     NOT AVBL
EDINBURG       SUNNY     44  41  87 CALM      30.07S
$$



USA.gov is the U.S. government's official web portal to all federal, state and local government web resources and services.